Location: Wien
(48.2082°N, 16.3738°E)
Time: 19:30:58
(UTC+02:00)

MOZHAYETS 4 - Pass Details

Date: 27 March 2019
Orbit: 661 x 681 km, 98.1° (Epoch: 21 October)

Event Time Altitude Azimuth Distance (km) Brightness Sun altitude
Exits shadow 02:59:29 10° 321° (NW) 2,100 10.3 -26.1°
Drops below altitude 10° 02:59:31 10° 322° (NW) 2,110 10.3 -26.1°
Sets 03:02:08 0° 336° (NNW) 3,033 11.3 -25.8°
